Location: Schommer Observatory
(40.5200°N, 74.4500°W)
Time: 20:05:09
(UTC-05:00)

OTV 5 (USA 277) - Pass Details

Date: 10 November 2017
Orbit: 404 x 417 km, 43.0° (Epoch: 07 September)

Event Time Altitude Azimuth Distance (km) Brightness Sun altitude
Exits shadow 05:21:54 27° 246° (WSW) 804 ? -14.8°
Maximum altitude 05:23:32 81° 162° (SSE) 411 ? -14.5°
Drops below altitude 10° 05:26:49 10° 74° (ENE) 1,456 ? -13.9°
Sets 05:28:55 0° 74° (ENE) 2,318 ? -13.5°
